Regional Weather Roundup
Issued by NWS

Home | Current Version | Previous Version | Graphics & Text | Print | Product List | Glossary On
Versions: 1 2 3 4 5 6 7 8 9 10 11 12 13 14 15 16 17 18 19 20 21 22 23 24 25 26 27 28 29 30 31 32 33 34 35 36 37 38 39 40 41 42 43 44 45 46 47 48 49 50
000
ASUS44 KMEG 240610
RWRTN
TENNESSEE HOURLY STATE WEATHER ROUNDUP
NATIONAL WEATHER SERVICE MEMPHIS TN
100 AM CDT THU JUL 24 2014

TNZ002-004-019-021-049-052-054-088>092-240700-
WEST TENNESSEE

CITY           SKY/WX    TMP DP  RH WIND       PRES   REMARKS
MEMPHIS INTL   CLEAR     73  67  81 NE3       30.02S
NWS MEMPHIS      N/A     71 N/A N/A MISG        N/A
JACKSON        MOCLDY    68  67  96 CALM      30.01F FOG
DYERSBURG      CLEAR     72  61  68 CALM      30.03S
UNION CITY     CLEAR     70  70 100 N6        30.01F
PARIS          CLOUDY    70  67  90 N6        30.02F
LEXINGTON      CLEAR     70  66  88 CALM      30.00F
$$

TNZ008-025-027-028-033-062-065-066-240700-
NORTH MIDDLE TENNESSEE

CITY           SKY/WX    TMP DP  RH WIND       PRES   REMARKS
NASHVILLE      PTCLDY    75  69  81 NW3       29.99F
DICKSON        PTCLDY    70  68  94 N3        30.01F
PORTLAND       CLEAR     68  66  94 CALM      29.99F
CLARKSVILLE    PTCLDY    73  68  84 N9        29.99F
LEBANON        PTCLDY    71  69  93 SW5       29.97F
SMYRNA         PTCLDY    71  71 100 W3        29.99F
MURFREESBORO   PTCLDY    71  70  97 W3        29.98
COOKEVILLE     CLEAR     70  70 100 CALM      29.99F
LIVINGSTON       N/A     68  68 100 W5        30.01
GALLATIN       PTCLDY    74  72  93 CALM      29.99F
CROSSVILLE     CLOUDY    71  68  90 W5        30.03F
$$

TNZ061-075-076-078-094-096-097-240700-
SOUTH MIDDLE TENNESSEE

CITY           SKY/WX    TMP DP  RH WIND       PRES   REMARKS
LEWISBURG      MOCLDY    73  68  84 N3        30.00S
FAYETTEVILLE   CLEAR     72  70  94 SW5G18    30.00F
TULLAHOMA      MOCLDY    70  70 100 SW5       30.01F
WINCHESTER     PTCLDY    73  70  88 CALM      29.99F
MCMINNVILLE    CLEAR     70  70 100 S3        29.99F
COLUMBIA       CLEAR     75  73  94 CALM      29.98F
SHELBYVILLE    MOCLDY    73  72  94 SW8       30.00F
$$

TNZ017-018-042-046-047-240700-
NORTHEAST TENNESSEE

CITY           SKY/WX    TMP DP  RH WIND       PRES   REMARKS
TRI CITIES     CLOUDY    70  67  90 N5        30.02F
ELIZABETHTON   PTCLDY    66  66 100 CALM      30.02F
$$

TNZ012-013-036-069-073-074-240700-
CENTRAL EAST TENNESSEE

CITY           SKY/WX    TMP DP  RH WIND       PRES   REMARKS
KNOXVILLE      CLOUDY    73  70  90 SE5       29.97F
OAK RIDGE      CLOUDY    72  70  93 CALM      29.99F
GATLINBURG     PTCLDY    70  70 100 CALM      29.99F
MORRISTOWN     PTCLDY    70  70 100 CALM      30.01F
$$

TNZ083-085-099-240700-
SOUTHEAST TENNESSEE

CITY           SKY/WX    TMP DP  RH WIND       PRES   REMARKS
CHATTANOOGA    PTCLDY    76  71  85 S3        29.97F
$$

SKY/WX REPORTED AS FAIR MEANS FEW OR NO CLOUDS BELOW
12 THOUSAND FEET.




USA.gov is the U.S. government's official web portal to all federal, state and local government web resources and services.